This demonstration page uses our WeatherBlox Daily Observations layout. Learn more.

Left ArrowRight Arrow

Hourly Observations for August 16, 2020

Temp ( °F °C ) Dew Point ( °F °C ) Humidity (%) Winds ( mph kmh ) Pressure ( in mb ) Visibility ( mi km ) Precip ( " mm )
12:54 am 00:54 Clear 68 20 58 14.4 70 70 Calm 30.09 1019 10 16.0934 0 0
1:54 am 01:54 Clear 67 19.4 58 14.4 73 73 Calm 30.09 1019 10 16.0934 0 0
2:54 am 02:54 Mostly Clear 67 19.4 57 13.9 71 71 Calm 30.08 1019 10 16.0934 0 0
3:54 am 03:54 Mostly Clear 65 18.3 58 14.4 78 78 WNW 3 6 30.1 1019 10 16.0934 0 0
4:54 am 04:54 Partly Cloudy 64 17.8 57 13.9 78 78 Calm 30.11 1020 10 16.0934 0 0
5:54 am 05:54 Clear 61 16.1 57 13.9 87 87 S 6 9 30.11 1020 10 16.0934 0 0
6:54 am 06:54 Sunny 63 17.2 58 14.4 84 84 SE 3 6 30.12 1020 9 14.48406 0 0
7:54 am 07:54 Sunny 66 18.9 60 15.6 81 81 S 3 6 30.12 1020 9 14.48406 0 0
8:54 am 08:54 Mostly Cloudy 69 20.6 60 15.6 73 73 S 5 7 30.12 1020 10 16.0934 0 0
9:54 am 09:54 Sunny 75 23.9 60 15.6 60 60 SSW 10 17 30.1 1019 10 16.0934 0 0
10:54 am 10:54 Sunny 80 26.7 51 10.6 37 37 SSW 12 19 30.11 1020 9 14.48406 0 0
11:54 am 11:54 Sunny 84 28.9 54 12.2 36 36 S 14 22 30.1 1019 10 16.0934 0 0
12:54 pm 12:54 Mostly Sunny 86 30 54 12.2 33 33 SSW 13 20 30.1 1019 10 16.0934 0 0
1:54 pm 13:54 Mostly Sunny 86 30 57 13.9 37 37 SSW 14 22 30.08 1019 10 16.0934 0 0
2:54 pm 14:54 Sunny 87 30.6 55 12.8 34 34 SSW 14 22 30.06 1018 10 16.0934 0 0
3:54 pm 15:54 Sunny 87 30.6 60 15.6 40 40 SSW 13 20 30.03 1017 10 16.0934 0 0
4:54 pm 16:54 Sunny 85 29.4 62 16.7 46 46 SSW 10 17 30.01 1016 10 16.0934 0 0
5:20 pm 17:20 Mostly Cloudy with Nearby Thunderstorms 84 28.9 62 16.7 48 48 undefined N/A 30.06 1018 10 16.0934 0 0
5:54 pm 17:54 Cloudy with Nearby Thunderstorms 66 18.9 57 13.9 73 73 ENE 7 11 30.09 1019 10 16.0934 0.001 0.001
6:06 pm 18:06 Cloudy with Light Thunderstorms 66 18.9 57 13.9 73 73 NE 9 15 30.08 1019 10 16.0934 0.001 0.001
6:54 pm 18:54 Cloudy with Light Thunderstorms 67 19.4 64 17.8 91 91 Calm 30.03 1017 8 12.87472 0.38 9.652
7:21 pm 19:21 Mostly Sunny 67 19.4 64 17.8 91 91 S 6 9 30.01 1016 9 14.48406 0.001 0.001
7:54 pm 19:54 Mostly Sunny 67 19.4 64 17.8 91 91 S 5 7 30.04 1017 10 16.0934 0.001 0.001
8:35 pm 20:35 Partly Cloudy with Nearby Thunderstorms 69 20.6 65 18.3 87 87 W 7 11 30.06 1018 9 14.48406 0 0
8:44 pm 20:44 Mostly Cloudy with Light Thunderstorms 69 20.6 65 18.3 87 87 VRB 6 9 30.07 1018 10 16.0934 0.001 0.001
8:54 pm 20:54 Partly Cloudy with Nearby Thunderstorms 69 20.6 64 17.8 84 84 W 8 13 30.09 1019 10 16.0934 0.001 0.001
9:15 pm 21:15 Clear 69 20.6 64 17.8 84 84 Calm 30.06 1018 10 16.0934 0.001 0.001
9:54 pm 21:54 Clear 70 21.1 64 17.8 82 82 NNW 7 11 30.07 1018 10 16.0934 0.001 0.001
10:54 pm 22:54 Clear 67 19.4 63 17.2 87 87 SSW 9 15 30.1 1019 10 16.0934 0 0
11:54 pm 23:54 Clear 66 18.9 62 16.7 87 87 Calm 30.11 1020 10 16.0934 0 0

Powered by AerisWeather